[[{"header":{"parameterUnit":"m.s-1","parameterCategory":1,"la1":30.2991,"la2":30.254,"lo1":-89.0895,"lo2":-89.0444,"dy":0.0017,"dx":0.0017,"nx":28,"ny":28,"refTime":"2024-06-05T09:00:00:Z","depth":0,"parameterNumber":2,"parameterNumberName":"U-component_of_WINDS"},"data":[0,0,0,0,0,0,0,0,0,0,0,0,0,0,0,0,0,0,0,0,0,0,0,0,0,0,0,0,0,0,0,0,0,0,0,0,0,0,0,0,0,0,0,0,0,0,0,0,0,0,0,0,0,0,0,0,0,0,-0.1942,-0.1943,0,-0.1994,-0.1995,-0.1996,-0.2048,-0.2048,-0.2049,-0.205,-0.2104,-0.2105,-0.2105,0,0,0,0,0,0,0,0,0,0,0,0,0,-0.1889,-0.1889,-0.1942,-0.1943,-0.1943,-0.1994,-0.1995,-0.1996,-0.2047,-0.2048,-0.2049,-0.205,-0.2104,-0.2105,-0.2106,0,0,0,0,0,0,0,0,0,0,0,0,0,-0.1923,-0.1889,-0.1942,-0.1975,-0.1979,-0.1994,-0.1995,-0.1996,-0.2047,-0.2048,-0.2049,-0.205,-0.2103,-0.2104,-0.2106,-0.2093,0,0,-0.2109,-0.211,0,0,0,0,0,0,0,0,-0.1921,-0.1925,-0.197,-0.1973,-0.1977,-0.2016,-0.1996,-0.2028,-0.2047,-0.2021,-0.205,-0.2051,-0.2074,-0.2077,-0.2085,-0.2095,-0.2097,-0.2109,-0.211,-0.2111,-0.2111,0,0,0,0,0,0,0,-0.1919,-0.1923,-0.1963,-0.197,-0.1975,-0.1988,-0.1994,-0.2002,-0.2041,-0.2024,-0.2027,-0.2033,-0.2076,-0.2084,-0.2087,-0.2098,-0.2109,-0.211,-0.2111,-0.2112,-0.2102,-0.2101,0,0,0,0,0,0,-0.1911,-0.1921,-0.1961,-0.1964,-0.1951,-0.1988,-0.1995,-0.2002,-0.2041,-0.2048,-0.2032,-0.2035,-0.2081,-0.2085,-0.2089,-0.2077,-0.2111,-0.2112,-0.2113,-0.2103,-0.2102,-0.2101,0,0,0,0,0,0,-0.191,-0.1914,-0.1959,-0.1944,-0.195,-0.1988,-0.1996,-0.2003,-0.201,-0.2047,-0.2055,-0.2033,-0.2082,-0.2087,-0.2092,-0.2079,-0.2112,-0.2113,-0.2104,-0.2103,-0.2101,-0.2052,0,0,0,0,0,0,-0.1908,-0.1913,-0.1908,-0.1943,-0.1951,-0.196,-0.1995,-0.2003,-0.2012,-0.2017,-0.205,-0.2057,-0.2083,-0.2089,-0.2093,-0.2082,-0.2114,-0.2105,-0.2104,-0.2102,-0.2055,-0.2049,-0.2044,0,0,0,0,0,-0.1906,-0.1892,-0.1908,-0.1912,-0.1945,-0.1959,-0.1964,-0.1995,-0.2011,-0.2007,-0.2031,-0.2056,-0.208,-0.2089,-0.2094,-0.2083,-0.2106,-0.2104,-0.2102,-0.2058,-0.2051,-0.2045,0,0,0,0,0,0,-0.1855,-0.1897,-0.1915,-0.1912,-0.1932,-0.1968,-0.1963,-0.1986,-0.2001,-0.2005,-0.2043,-0.205,-0.205,-0.2067,-0.2077,-0.2073,-0.2097,-0.2095,-0.2062,-0.2055,-0.205,-0.2046,-0.2115,0,0,0,0,0,-0.1843,-0.185,-0.1887,-0.1881,-0.189,-0.1925,-0.1932,-0.1954,-0.1976,-0.1985,-0.2009,-0.203,-0.2043,-0.205,-0.2064,-0.2058,-0.2067,-0.2053,-0.2048,-0.2043,-0.2041,-0.2041,-0.2036,-0.2094,-0.2094,-0.2094,0,0,-0.1819,-0.1843,-0.1845,-0.1872,-0.1889,-0.1897,-0.1931,-0.1937,-0.1944,-0.1986,-0.1992,-0.201,-0.2036,-0.2036,-0.2037,-0.205,-0.2027,-0.204,-0.2036,-0.2037,-0.2038,-0.2033,-0.2028,-0.2092,-0.2092,-0.2093,0,0,-0.1779,-0.1797,-0.1795,-0.1812,-0.1839,-0.1863,-0.1862,-0.1895,-0.1909,-0.1916,-0.1948,-0.1956,-0.1977,-0.1994,-0.2006,-0.1974,-0.1998,-0.1978,-0.1949,-0.1949,-0.1944,-0.194,-0.193,-0.1925,-0.1976,-0.1976,-0.1976,0,-0.1745,-0.1757,-0.1791,-0.1795,-0.1806,-0.1845,-0.1843,-0.1859,-0.1889,-0.1896,-0.191,-0.1938,-0.1958,-0.1963,-0.1955,-0.1963,-0.1964,-0.1974,-0.1942,-0.1939,-0.1935,-0.1926,-0.1922,-0.1973,-0.1974,-0.1974,-0.1974,0,-0.1716,-0.1724,-0.1718,-0.1746,-0.1757,-0.1758,-0.1793,-0.1799,-0.1821,-0.1843,-0.185,-0.1876,-0.1896,-0.1899,-0.192,-0.1908,-0.1915,-0.1935,-0.196,-0.1927,-0.1918,-0.1915,-0.1969,-0.197,-0.1971,-0.1972,0,0,-0.1644,-0.1691,-0.1689,-0.1702,-0.1735,-0.1742,-0.1746,-0.1766,-0.1771,-0.1791,-0.1796,-0.1813,-0.1833,-0.1846,-0.1869,-0.1869,-0.1843,-0.1889,-0.1891,-0.188,-0.1832,-0.1817,-0.1812,-0.1859,-0.1859,-0.1858,-0.183,0,-0.1609,-0.1618,-0.1649,-0.1648,-0.1657,-0.1694,-0.1698,-0.1719,-0.174,-0.1751,-0.1775,-0.1787,-0.1811,-0.182,-0.1821,-0.1846,-0.1834,-0.1848,-0.1865,-0.1865,-0.1857,-0.1808,-0.1791,-0.1763,-0.1827,-0.1827,-0.1826,0,-0.157,-0.1588,-0.1588,-0.1622,-0.1627,-0.1629,-0.1651,-0.166,-0.1686,-0.1701,-0.1716,-0.1743,-0.175,-0.1774,-0.1785,-0.1794,-0.1803,-0.1816,-0.1816,-0.1819,-0.1843,-0.1809,-0.1755,-0.1751,-0.1821,-0.1822,-0.1822,0,-0.1519,-0.1542,-0.1546,-0.1556,-0.1596,-0.1597,-0.1613,-0.164,-0.165,-0.1669,-0.1677,-0.1696,-0.1707,-0.1722,-0.1753,-0.1767,-0.1761,-0.1787,-0.1775,-0.1774,-0.1772,-0.1771,-0.1718,-0.1777,-0.1777,-0.1777,-0.1777,0,-0.1477,-0.1476,-0.1523,-0.1525,-0.1525,-0.1562,-0.1561,-0.1582,-0.1605,-0.1612,-0.1647,-0.1653,-0.1694,-0.1706,-0.1731,-0.1737,-0.1741,-0.1755,-0.1762,-0.1752,-0.175,-0.1758,-0.1761,-0.1776,-0.1776,-0.1776,-0.1777,0,-0.1419,-0.145,-0.1457,-0.1494,-0.1504,-0.1502,-0.1535,-0.1539,-0.1563,-0.1572,-0.1576,-0.1614,-0.1629,-0.1663,-0.1687,-0.1704,-0.1704,-0.1716,-0.1695,-0.17,-0.1686,-0.1687,-0.1636,-0.1632,-0.1693,-0.1692,-0.1692,0,-0.1391,-0.1391,-0.1428,-0.1436,-0.1451,-0.1462,-0.1473,-0.1509,-0.1519,-0.1549,-0.155,-0.1568,-0.1585,-0.1608,-0.1638,-0.1657,-0.167,-0.1651,-0.1673,-0.1664,-0.1671,-0.167,-0.1671,-0.1646,-0.1645,-0.1644,-0.1644,0,-0.1337,-0.1353,-0.1367,-0.1387,-0.1399,-0.1417,-0.1436,-0.144,-0.1481,-0.1491,-0.1507,-0.152,-0.1546,-0.1564,-0.1588,-0.1606,-0.1632,-0.1637,-0.1635,-0.1625,-0.1614,-0.1621,-0.1682,-0.1638,-0.1638,-0.1639,-0.1639,-0.1639,-0.1294,-0.1296,-0.1323,-0.1338,-0.1357,-0.1374,-0.138,-0.1405,-0.1419,-0.1442,-0.1463,-0.1478,-0.1505,-0.154,-0.1557,-0.1569,-0.1582,-0.158,-0.1579,-0.1578,-0.1574,-0.1612,-0.1574,-0.1574,-0.1574,-0.1575,-0.1575,0,-0.1243,-0.1262,-0.1276,-0.1302,-0.1314,-0.1337,-0.136,-0.1369,-0.1381,-0.1404,-0.142,-0.1439,-0.1458,-0.1489,-0.151,-0.1515,-0.1527,-0.1519,-0.1519,-0.1523,-0.1561,-0.1561,-0.1509,-0.1509,-0.1509,-0.1509,-0.1509,-0.1509,-0.1217,-0.1223,-0.1242,-0.1257,-0.1277,-0.1292,-0.1303,-0.132,-0.1338,-0.1358,-0.1374,-0.1394,-0.1421,-0.1445,-0.1463,-0.1472,-0.1478,-0.1466,-0.1479,-0.1514,-0.152,-0.1526,-0.1526,-0.1467,-0.1467,-0.144,-0.144,-0.144]},{"header":{"parameterUnit":"m.s-1","parameterCategory":1,"la1":30.2991,"la2":30.254,"lo1":-89.0895,"lo2":-89.0444,"dy":0.0017,"dx":0.0017,"nx":28,"ny":28,"refTime":"2024-06-05T09:00:00:Z","depth":0,"parameterNumber":3,"parameterNumberName":"V-component_of_WINDS"},"data":[0,0,0,0,0,0,0,0,0,0,0,0,0,0,0,0,0,0,0,0,0,0,0,0,0,0,0,0,0,0,0,0,0,0,0,0,0,0,0,0,0,0,0,0,0,0,0,0,0,0,0,0,0,0,0,0,0,0,6.7587,6.7588,0,6.7638,6.7639,6.7639,6.7614,6.7612,6.7611,6.761,6.7655,6.7658,6.766,0,0,0,0,0,0,0,0,0,0,0,0,0,6.7462,6.7464,6.7587,6.7588,6.7589,6.7638,6.7639,6.7639,6.7614,6.7612,6.7611,6.7609,6.7654,6.7657,6.766,0,0,0,0,0,0,0,0,0,0,0,0,0,6.7515,6.7465,6.7587,6.7582,6.7582,6.7638,6.7639,6.764,6.7614,6.7612,6.761,6.7608,6.7653,6.7657,6.7661,6.7723,0,0,6.7672,6.7673,0,0,0,0,0,0,0,0,6.7512,6.7519,6.7582,6.7583,6.7583,6.7618,6.7611,6.7667,6.7615,6.7602,6.761,6.7607,6.7644,6.7648,6.7662,6.7725,6.7727,6.7672,6.7674,6.7676,6.7677,0,0,0,0,0,0,0,6.7508,6.7517,6.7607,6.7583,6.7583,6.7575,6.758,6.7622,6.7633,6.7603,6.7601,6.7608,6.7644,6.7658,6.7663,6.7727,6.7672,6.7675,6.7678,6.7679,6.7843,6.7845,0,0,0,0,0,0,6.7506,6.7514,6.7606,6.7609,6.7542,6.7579,6.7585,6.7608,6.7633,6.7635,6.7609,6.7606,6.7653,6.7658,6.7664,6.7738,6.7676,6.7679,6.7681,6.7841,6.7844,6.7846,0,0,0,0,0,0,6.7503,6.7514,6.7604,6.7561,6.7572,6.7583,6.761,6.761,6.7625,6.7638,6.7639,6.7623,6.7652,6.7659,6.7709,6.774,6.7681,6.7684,6.7838,6.7842,6.7845,6.7887,0,0,0,0,0,0,6.75,6.7513,6.7538,6.7562,6.7574,6.7649,6.7612,6.7613,6.7632,6.7629,6.7651,6.7652,6.7651,6.7703,6.7712,6.7744,6.7687,6.7836,6.784,6.7844,6.7883,6.7892,6.7899,0,0,0,0,0,6.7495,6.7547,6.754,6.7551,6.7606,6.7651,6.7658,6.7657,6.7635,6.7659,6.7667,6.7652,6.7735,6.7709,6.7718,6.7751,6.7834,6.7839,6.7843,6.788,6.789,6.7899,0,0,0,0,0,0,6.7524,6.755,6.7542,6.7604,6.7626,6.7647,6.7677,6.7668,6.7695,6.769,6.7686,6.7691,6.7743,6.7752,6.7722,6.7812,6.7781,6.7788,6.7805,6.7815,6.7822,6.7819,6.769,0,0,0,0,0,6.7538,6.7575,6.7594,6.7646,6.7658,6.7666,6.7685,6.7683,6.7705,6.7713,6.7725,6.7745,6.7775,6.7795,6.7824,6.7884,6.7888,6.7912,6.792,6.7926,6.7932,6.7964,6.7975,6.7862,6.7862,6.7862,0,0,6.7566,6.7585,6.7608,6.7652,6.7669,6.7705,6.7674,6.7713,6.7739,6.7718,6.7767,6.7776,6.7797,6.7853,6.7878,6.7862,6.7964,6.7932,6.7937,6.794,6.797,6.7981,6.7991,6.7865,6.7865,6.7864,0,0,6.7636,6.7655,6.77,6.7718,6.7745,6.775,6.7761,6.7784,6.779,6.7839,6.7825,6.7854,6.7907,6.7924,6.7939,6.8016,6.8002,6.8025,6.8066,6.8097,6.8106,6.8114,6.8141,6.8151,6.8031,6.8031,6.8031,0,6.7667,6.7724,6.7724,6.7766,6.7785,6.7771,6.7816,6.7832,6.7866,6.7879,6.7861,6.7928,6.7942,6.8001,6.802,6.8033,6.8044,6.8022,6.8105,6.8113,6.812,6.8146,6.8157,6.8034,6.8034,6.8033,6.8033,0,6.776,6.7799,6.7832,6.7869,6.7892,6.7935,6.794,6.7963,6.7959,6.7965,6.8014,6.803,6.8063,6.8076,6.8071,6.8134,6.8124,6.8106,6.8074,6.8134,6.8158,6.8168,6.8038,6.8037,6.8036,6.8035,0,0,6.7849,6.7887,6.7899,6.7915,6.7944,6.7973,6.8014,6.8048,6.8068,6.8091,6.8125,6.8171,6.8155,6.8172,6.8169,6.8196,6.8256,6.8175,6.8175,6.8189,6.8326,6.834,6.8351,6.8248,6.825,6.8251,6.8325,0,6.7922,6.7998,6.8,6.8068,6.8103,6.809,6.8126,6.8146,6.8154,6.8183,6.8189,6.8222,6.8199,6.8209,6.8236,6.8244,6.8284,6.8238,6.8278,6.8279,6.8273,6.8364,6.8378,6.8447,6.8334,6.8336,6.8337,0,6.8016,6.8046,6.8119,6.8143,6.8158,6.8191,6.8222,6.825,6.8273,6.8276,6.8296,6.8289,6.8329,6.8296,6.8351,6.832,6.8336,6.8342,6.8345,6.8348,6.8311,6.837,6.8469,6.8479,6.8352,6.8351,6.8349,0,6.8074,6.8132,6.8183,6.8197,6.8227,6.825,6.8263,6.8284,6.8304,6.833,6.8343,6.8373,6.8389,6.8411,6.8412,6.8388,6.8467,6.8434,6.847,6.847,6.8487,6.8485,6.859,6.8497,6.8497,6.8497,6.8497,0,6.8154,6.8199,6.821,6.8241,6.829,6.8291,6.834,6.835,6.8369,6.84,6.839,6.8419,6.8418,6.8448,6.8448,6.8493,6.85,6.8503,6.8502,6.8504,6.8504,6.8514,6.8509,6.85,6.8499,6.8499,6.8498,0,6.8227,6.8236,6.8291,6.8316,6.8323,6.8358,6.8378,6.8406,6.8413,6.8453,6.8462,6.8472,6.8506,6.8509,6.8548,6.8548,6.8603,6.8597,6.8596,6.8595,6.863,6.8627,6.8744,6.876,6.8658,6.8659,6.866,0,6.8278,6.8313,6.8342,6.8364,6.8379,6.8413,6.8435,6.8437,6.8459,6.8487,6.8512,6.8546,6.8573,6.8628,6.8637,6.8666,6.8661,6.87,6.8665,6.8666,6.8661,6.8659,6.8663,6.8707,6.8708,6.8709,6.871,0,6.8367,6.837,6.8403,6.8437,6.8464,6.849,6.8514,6.8532,6.8536,6.8562,6.8598,6.8619,6.866,6.8693,6.8722,6.8733,6.8722,6.8721,6.873,6.8732,6.873,6.8732,6.8614,6.8718,6.8717,6.8716,6.8716,6.8716,6.8431,6.8461,6.8487,6.8523,6.8542,6.8566,6.8595,6.8606,6.8637,6.8672,6.867,6.871,6.873,6.8769,6.8782,6.8812,6.8798,6.8812,6.8816,6.8819,6.8823,6.8726,6.8817,6.8817,6.8816,6.8816,6.8816,0,6.8519,6.8535,6.8569,6.8605,6.8634,6.8623,6.865,6.8673,6.871,6.8731,6.8759,6.88,6.8832,6.8844,6.8875,6.8896,6.8892,6.8904,6.8902,6.8905,6.8833,6.8822,6.8907,6.8907,6.8907,6.8907,6.8907,6.8907,6.8569,6.862,6.8626,6.8686,6.8701,6.8742,6.8758,6.8779,6.8796,6.8844,6.8871,6.888,6.8897,6.8929,6.8958,6.896,6.8972,6.8986,6.8987,6.8919,6.891,6.8901,6.8891,6.8989,6.8989,6.9056,6.9057,6.9057]}]]